[[{"header":{"parameterUnit":"m.s-1","parameterCategory":2,"la1":30.2991,"la2":30.254,"lo1":-89.0895,"lo2":-89.0444,"dy":0.0017,"dx":0.0017,"nx":28,"ny":28,"refTime":"2025-02-04T09:00:00:Z","depth":"0","parameterNumber":2,"parameterNumberName":"U-component_of_CURRENTS"},"data":[0,0,0,0,0,0,0,0,0,0,0,0,0,0,0,0,0,0,0,0,0,0,0,0,0,0,0,0,0,0,0,0,0,0,0,0,0,0,0,0,0,0,0,0,0,0,0,0,0,0,0,0,0,0,0,0,0,0,0.329,0.329,0,0.3303,0.3303,0.3304,0.3313,0.3313,0.3313,0.3313,0.3323,0.3323,0.3324,0,0,0,0,0,0,0,0,0,0,0,0,0,0.3264,0.3264,0.329,0.329,0.3291,0.3303,0.3303,0.3304,0.3313,0.3313,0.3313,0.3313,0.3323,0.3323,0.3324,0,0,0,0,0,0,0,0,0,0,0,0,0,0.3276,0.3265,0.329,0.3296,0.3297,0.3303,0.3303,0.3304,0.3313,0.3313,0.3313,0.3313,0.3323,0.3323,0.3324,0.3324,0,0,0.3325,0.3325,0,0,0,0,0,0,0,0,0.3275,0.3277,0.3295,0.3296,0.3297,0.3306,0.3298,0.331,0.3312,0.3307,0.3313,0.3313,0.3317,0.3318,0.332,0.3325,0.3325,0.3325,0.3325,0.3325,0.3325,0,0,0,0,0,0,0,0.3275,0.3277,0.3296,0.3296,0.3296,0.3295,0.3297,0.33,0.3311,0.3307,0.3308,0.3309,0.3317,0.332,0.3321,0.3325,0.3325,0.3325,0.3325,0.3325,0.335,0.3351,0,0,0,0,0,0,0.3273,0.3276,0.3295,0.3296,0.3286,0.3296,0.3298,0.3303,0.3312,0.3313,0.3309,0.3309,0.3319,0.332,0.3321,0.3329,0.3325,0.3325,0.3326,0.335,0.335,0.3351,0,0,0,0,0,0,0.3273,0.3275,0.3295,0.3286,0.3288,0.3296,0.3302,0.3303,0.3305,0.3313,0.3314,0.3309,0.332,0.3321,0.3326,0.333,0.3326,0.3326,0.3349,0.335,0.3351,0.3341,0,0,0,0,0,0,0.3272,0.3275,0.3283,0.3286,0.3289,0.3293,0.3302,0.3304,0.3306,0.3307,0.3313,0.3315,0.332,0.3325,0.3326,0.333,0.3326,0.3349,0.335,0.335,0.3341,0.3342,0.3342,0,0,0,0,0,0.3271,0.3272,0.3284,0.3286,0.3299,0.3293,0.3294,0.33,0.3306,0.3303,0.3313,0.3314,0.3332,0.3325,0.3326,0.3331,0.3348,0.3349,0.335,0.3341,0.3342,0.3342,0,0,0,0,0,0,0.3263,0.3274,0.3286,0.3292,0.3293,0.3294,0.329,0.3299,0.3304,0.3305,0.3315,0.3317,0.3322,0.333,0.3323,0.3342,0.3342,0.3343,0.3335,0.3335,0.3336,0.3318,0.3326,0,0,0,0,0,0.3267,0.3273,0.328,0.3285,0.3282,0.3288,0.3289,0.3293,0.3296,0.3298,0.3306,0.3318,0.3327,0.3333,0.3338,0.3347,0.3364,0.3354,0.3354,0.3354,0.3342,0.3371,0.3372,0.3354,0.3354,0.3354,0,0,0.3263,0.3273,0.3275,0.3284,0.3283,0.3278,0.3288,0.3282,0.3285,0.3298,0.3303,0.3313,0.3328,0.3338,0.3342,0.3345,0.3374,0.3356,0.3356,0.3342,0.3372,0.3374,0.3375,0.3355,0.3355,0.3355,0,0,0.3248,0.3265,0.3259,0.3261,0.3263,0.3268,0.3266,0.3268,0.3274,0.3281,0.3295,0.3308,0.332,0.3335,0.3345,0.3352,0.337,0.3358,0.335,0.3379,0.338,0.3382,0.3427,0.3433,0.3364,0.3364,0.3364,0,0.3237,0.3246,0.3255,0.3249,0.3251,0.3262,0.3253,0.3261,0.3269,0.3277,0.3279,0.3305,0.3318,0.3338,0.3341,0.3352,0.3375,0.3345,0.3379,0.338,0.3382,0.3428,0.3434,0.3364,0.3364,0.3364,0.3364,0,0.3221,0.3228,0.3219,0.3223,0.3225,0.3218,0.3228,0.3235,0.3247,0.3259,0.3273,0.3292,0.3311,0.3322,0.3331,0.3353,0.3369,0.3371,0.3374,0.3383,0.3432,0.3438,0.3364,0.3364,0.3364,0.3364,0,0,0.3176,0.3204,0.3195,0.3205,0.3213,0.3209,0.3217,0.3228,0.3237,0.3249,0.3263,0.3282,0.3293,0.3304,0.3325,0.3348,0.339,0.3361,0.3363,0.3401,0.3467,0.3395,0.3396,0.3396,0.3396,0.3397,0.3504,0,0.3153,0.3154,0.317,0.3166,0.3168,0.3187,0.3195,0.321,0.3227,0.3243,0.3267,0.3285,0.3288,0.3303,0.3323,0.3362,0.3402,0.3361,0.3456,0.3459,0.339,0.3399,0.3221,0.3293,0.3511,0.3512,0.3513,0,0.3124,0.3134,0.3133,0.316,0.3157,0.3157,0.3177,0.3188,0.3217,0.3231,0.3249,0.327,0.33,0.3307,0.3375,0.3347,0.3405,0.3441,0.3446,0.3379,0.3398,0.3316,0.3297,0.3137,0.3523,0.3522,0.3521,0,0.3097,0.3105,0.3112,0.3116,0.3142,0.3144,0.3157,0.3182,0.3189,0.3228,0.3231,0.3273,0.3287,0.3349,0.34,0.3401,0.3476,0.3496,0.3497,0.3495,0.3358,0.3341,0.3183,0.3563,0.3563,0.3563,0.3562,0,0.3073,0.3074,0.31,0.31,0.3103,0.3128,0.313,0.3152,0.3174,0.3176,0.322,0.3223,0.3293,0.3336,0.3405,0.3447,0.3487,0.3489,0.3507,0.3353,0.3334,0.3202,0.3184,0.3567,0.3566,0.3565,0.3564,0,0.3044,0.3065,0.3071,0.3089,0.3094,0.3094,0.3106,0.3106,0.3134,0.3138,0.3149,0.3189,0.3239,0.331,0.3414,0.3436,0.34,0.3528,0.3343,0.3335,0.3166,0.3157,0.3032,0.2971,0.3548,0.3547,0.3545,0,0.3025,0.3028,0.3048,0.3044,0.3049,0.3055,0.3054,0.3085,0.3084,0.3108,0.3103,0.3151,0.319,0.3293,0.3333,0.3436,0.3349,0.3321,0.328,0.3111,0.3118,0.3057,0.3011,0.3124,0.3119,0.3116,0.3113,0,0.298,0.2993,0.3002,0.3006,0.3002,0.2991,0.2994,0.2988,0.3017,0.3031,0.3055,0.3099,0.3163,0.3153,0.3234,0.3268,0.3115,0.325,0.3111,0.2789,0.2677,0.264,0.3123,0.308,0.3084,0.3086,0.3088,0.3089,0.2938,0.2941,0.2958,0.296,0.295,0.2922,0.2899,0.29,0.2902,0.2868,0.2961,0.2948,0.2943,0.3028,0.3044,0.2835,0.2956,0.2728,0.2748,0.2713,0.2572,0.2984,0.2931,0.2933,0.2935,0.2937,0.2938,0,0.2896,0.2913,0.2906,0.2903,0.2873,0.2883,0.2852,0.2806,0.2788,0.2746,0.2761,0.2676,0.2605,0.2565,0.2424,0.2333,0.2285,0.2223,0.2066,0.2066,0.244,0.233,0.2096,0.2096,0.2096,0.2096,0.2096,0.2097,0.2876,0.2879,0.289,0.2837,0.2819,0.2753,0.2724,0.2651,0.2601,0.244,0.2334,0.2322,0.2253,0.2058,0.1844,0.1814,0.1713,0.1633,0.1705,0.1906,0.1952,0.1997,0.1881,0.1556,0.1556,0.1203,0.12,0.1198]},{"header":{"parameterUnit":"m.s-1","parameterCategory":2,"la1":30.2991,"la2":30.254,"lo1":-89.0895,"lo2":-89.0444,"dy":0.0017,"dx":0.0017,"nx":28,"ny":28,"refTime":"2025-02-04T09:00:00:Z","depth":"0","parameterNumber":3,"parameterNumberName":"V-component_of_CURRENTS"},"data":[0,0,0,0,0,0,0,0,0,0,0,0,0,0,0,0,0,0,0,0,0,0,0,0,0,0,0,0,0,0,0,0,0,0,0,0,0,0,0,0,0,0,0,0,0,0,0,0,0,0,0,0,0,0,0,0,0,0,-0.1069,-0.107,0,-0.1118,-0.1118,-0.1119,-0.1145,-0.1145,-0.1145,-0.1145,-0.1214,-0.1216,-0.1218,0,0,0,0,0,0,0,0,0,0,0,0,0,-0.1023,-0.1023,-0.1069,-0.107,-0.107,-0.1118,-0.1119,-0.1119,-0.1145,-0.1145,-0.1145,-0.1145,-0.1213,-0.1216,-0.1218,0,0,0,0,0,0,0,0,0,0,0,0,0,-0.1056,-0.1024,-0.1069,-0.1087,-0.1089,-0.1117,-0.1119,-0.112,-0.1145,-0.1145,-0.1145,-0.1144,-0.1213,-0.1216,-0.1218,-0.1241,0,0,-0.1228,-0.1229,0,0,0,0,0,0,0,0,-0.1054,-0.1058,-0.1084,-0.1086,-0.1088,-0.1123,-0.1127,-0.1161,-0.1145,-0.1126,-0.1145,-0.1144,-0.1184,-0.119,-0.1202,-0.1244,-0.1247,-0.1228,-0.123,-0.1231,-0.1232,0,0,0,0,0,0,0,-0.1052,-0.1056,-0.1091,-0.1084,-0.1087,-0.1101,-0.1105,-0.1134,-0.1158,-0.1128,-0.1129,-0.1131,-0.1186,-0.1199,-0.1204,-0.1248,-0.1228,-0.123,-0.1232,-0.1233,-0.1312,-0.1313,0,0,0,0,0,0,-0.1041,-0.1054,-0.1089,-0.1092,-0.1068,-0.1101,-0.1107,-0.1114,-0.1157,-0.1163,-0.1131,-0.1132,-0.1194,-0.12,-0.1206,-0.1221,-0.1231,-0.1234,-0.1235,-0.1312,-0.1312,-0.1313,0,0,0,0,0,0,-0.104,-0.1044,-0.1087,-0.1072,-0.1078,-0.1102,-0.111,-0.1115,-0.1127,-0.1159,-0.1166,-0.1138,-0.1194,-0.1202,-0.1232,-0.1224,-0.1235,-0.1238,-0.1312,-0.1312,-0.1313,-0.126,0,0,0,0,0,0,-0.1038,-0.1043,-0.1049,-0.1071,-0.1079,-0.1101,-0.111,-0.1116,-0.1128,-0.113,-0.1168,-0.1174,-0.1195,-0.1228,-0.1235,-0.1229,-0.124,-0.1311,-0.1312,-0.1313,-0.1261,-0.1258,-0.1256,0,0,0,0,0,-0.1036,-0.1042,-0.1049,-0.1054,-0.1085,-0.1101,-0.1106,-0.1124,-0.1128,-0.1134,-0.116,-0.1173,-0.1236,-0.123,-0.1239,-0.1233,-0.1311,-0.1312,-0.1312,-0.1262,-0.1259,-0.1256,0,0,0,0,0,0,-0.1021,-0.1045,-0.1054,-0.1066,-0.1081,-0.1104,-0.111,-0.1123,-0.1149,-0.1148,-0.118,-0.1189,-0.121,-0.1235,-0.1227,-0.126,-0.1275,-0.1277,-0.1234,-0.1231,-0.1228,-0.12,-0.1243,0,0,0,0,0,-0.1021,-0.1034,-0.1054,-0.1063,-0.1067,-0.1089,-0.1099,-0.1109,-0.1131,-0.1142,-0.1169,-0.1197,-0.1221,-0.1236,-0.1263,-0.1284,-0.1265,-0.1286,-0.1284,-0.1281,-0.1265,-0.1236,-0.1228,-0.1315,-0.1315,-0.1315,0,0,-0.1015,-0.1031,-0.1038,-0.1061,-0.1072,-0.1078,-0.1095,-0.1103,-0.1109,-0.1146,-0.1165,-0.1191,-0.1226,-0.1245,-0.1257,-0.1264,-0.1244,-0.1282,-0.1279,-0.1265,-0.1235,-0.1226,-0.1218,-0.1316,-0.1316,-0.1315,0,0,-0.1006,-0.1024,-0.1029,-0.1041,-0.1056,-0.1069,-0.107,-0.1092,-0.1102,-0.1125,-0.1148,-0.1164,-0.1213,-0.1226,-0.1241,-0.1242,-0.1231,-0.126,-0.1222,-0.1194,-0.1185,-0.1177,-0.1122,-0.111,-0.1258,-0.1258,-0.1258,0,-0.0988,-0.101,-0.1032,-0.1037,-0.1043,-0.1062,-0.1061,-0.1076,-0.1106,-0.1109,-0.1123,-0.1166,-0.1197,-0.1204,-0.1206,-0.1232,-0.1207,-0.1227,-0.1186,-0.1178,-0.1171,-0.1117,-0.1104,-0.1255,-0.1255,-0.1256,-0.1256,0,-0.0986,-0.1001,-0.1001,-0.1018,-0.1026,-0.1028,-0.1044,-0.1053,-0.1067,-0.1079,-0.1088,-0.1122,-0.1142,-0.1158,-0.1184,-0.1158,-0.1151,-0.1182,-0.1184,-0.1159,-0.1103,-0.1091,-0.1252,-0.1253,-0.1253,-0.1254,0,0,-0.0929,-0.0988,-0.0983,-0.0994,-0.1015,-0.1017,-0.1022,-0.1029,-0.1017,-0.1044,-0.1027,-0.1068,-0.1075,-0.1092,-0.1119,-0.1098,-0.1028,-0.1117,-0.1116,-0.1043,-0.0935,-0.088,-0.0861,-0.105,-0.1048,-0.1046,-0.0908,0,-0.0909,-0.0931,-0.0961,-0.0963,-0.0971,-0.099,-0.0989,-0.0996,-0.1003,-0.0992,-0.1008,-0.1007,-0.1054,-0.1051,-0.1039,-0.1037,-0.0996,-0.1061,-0.0987,-0.0984,-0.0923,-0.0846,-0.077,-0.0636,-0.0896,-0.0894,-0.0892,0,-0.0882,-0.0905,-0.0916,-0.0943,-0.0942,-0.0942,-0.0931,-0.0935,-0.0928,-0.0928,-0.0925,-0.0937,-0.0918,-0.0956,-0.0909,-0.0947,-0.0929,-0.0921,-0.0916,-0.0872,-0.0906,-0.071,-0.0604,-0.067,-0.0873,-0.0875,-0.0876,0,-0.0832,-0.0864,-0.0876,-0.0884,-0.0915,-0.091,-0.0915,-0.0912,-0.0896,-0.0878,-0.0847,-0.0847,-0.0818,-0.0811,-0.0803,-0.0849,-0.0726,-0.0794,-0.0716,-0.0712,-0.0634,-0.0626,-0.0566,-0.0731,-0.0732,-0.0732,-0.0732,0,-0.0799,-0.08,-0.0855,-0.0856,-0.0842,-0.0874,-0.0842,-0.0845,-0.0826,-0.0781,-0.0806,-0.0752,-0.0778,-0.0726,-0.0743,-0.0666,-0.0675,-0.067,-0.0662,-0.0613,-0.0605,-0.0654,-0.0726,-0.0727,-0.0728,-0.0729,-0.073,0,-0.0737,-0.0783,-0.0787,-0.0818,-0.0822,-0.0805,-0.0799,-0.077,-0.0761,-0.0695,-0.0679,-0.0651,-0.0577,-0.0579,-0.0537,-0.0558,-0.0516,-0.0489,-0.0412,-0.0398,-0.0417,-0.0489,-0.039,-0.04,-0.0379,-0.0377,-0.0375,0,-0.0708,-0.0712,-0.0741,-0.0736,-0.0748,-0.0738,-0.072,-0.0728,-0.0696,-0.0624,-0.0577,-0.0492,-0.0416,-0.0321,-0.0314,-0.0273,-0.0381,-0.0214,-0.0301,-0.0365,-0.0441,-0.0495,-0.0517,-0.0168,-0.0165,-0.0162,-0.0159,0,-0.0635,-0.0651,-0.0659,-0.0661,-0.065,-0.0631,-0.0614,-0.0576,-0.056,-0.0481,-0.0374,-0.0306,-0.0208,-0.0106,-0.0061,-0.0077,-0.0239,-0.0154,-0.0239,-0.0266,-0.03,-0.0324,-0.031,-0.0134,-0.0136,-0.0138,-0.014,-0.0141,-0.056,-0.0556,-0.0578,-0.0572,-0.056,-0.052,-0.0475,-0.0425,-0.0332,-0.0167,-0.0168,0.003,0.0064,0.015,0.0083,0.0033,-0.0036,-0.0008,-0.0083,-0.0126,-0.0156,-0.0069,0.011,0.0109,0.0108,0.0108,0.0107,0,-0.0472,-0.0491,-0.0488,-0.0481,-0.0442,-0.0459,-0.0397,-0.0314,-0.0159,0.0046,0.019,0.0398,0.0421,0.0346,0.0261,0.0136,0.0043,0.0043,-0.0037,-0.0061,0.0024,0.0008,0.0197,0.0197,0.0197,0.0197,0.0197,0.0197,-0.0425,-0.0417,-0.044,-0.0375,-0.0357,-0.0275,-0.0223,-0.0086,0.0073,0.04,0.0632,0.0769,0.0723,0.0395,0.0164,0.0083,-0.0066,-0.0042,-0.0156,-0.0142,-0.0155,-0.0167,-0.0197,-0.0055,-0.0056,-0.0186,-0.0188,-0.0189]}],[{"header":{"parameterUnit":"m.s-1","parameterCategory":2,"la1":30.2991,"la2":30.254,"lo1":-89.0895,"lo2":-89.0444,"dy":0.0017,"dx":0.0017,"nx":28,"ny":28,"refTime":"2025-02-04T09:00:00:Z","depth":"2","parameterNumber":2,"parameterNumberName":"U-component_of_CURRENTS"},"data":[0,0,0,0,0,0,0,0,0,0,0,0,0,0,0,0,0,0,0,0,0,0,0,0,0,0,0,0,0,0,0,0,0,0,0,0,0,0,0,0,0,0,0,0,0,0,0,0,0,0,0,0,0,0,0,0,0,0,0.1396,0.1396,0,0.1441,0.1441,0.1441,0.1453,0.1453,0.1454,0.1454,0.1452,0.1452,0.1452,0,0,0,0,0,0,0,0,0,0,0,0,0,0.1341,0.1341,0.1395,0.1396,0.1397,0.1441,0.1441,0.1441,0.1453,0.1453,0.1454,0.1454,0.1452,0.1452,0.1451,0,0,0,0,0,0,0,0,0,0,0,0,0,0.1369,0.1341,0.1395,0.1412,0.1414,0.1441,0.1441,0.1441,0.1453,0.1453,0.1454,0.1454,0.1452,0.1452,0.1451,0.1445,0,0,0.1451,0.145,0,0,0,0,0,0,0,0,0.1367,0.137,0.1409,0.1411,0.1414,0.1446,0.1421,0.1442,0.1453,0.1434,0.1454,0.1454,0.1448,0.1448,0.145,0.1445,0.1445,0.1451,0.145,0.145,0.145,0,0,0,0,0,0,0,0.1365,0.1368,0.1409,0.141,0.1413,0.1425,0.1428,0.1425,0.1435,0.1435,0.1437,0.145,0.1449,0.1451,0.145,0.1445,0.1451,0.145,0.145,0.145,0.1506,0.1508,0,0,0,0,0,0,0.1367,0.1366,0.1407,0.1411,0.1396,0.1426,0.143,0.1431,0.1436,0.1438,0.145,0.145,0.1451,0.1451,0.145,0.1504,0.145,0.145,0.145,0.1504,0.1506,0.1508,0,0,0,0,0,0,0.1366,0.137,0.1406,0.1394,0.14,0.1427,0.1429,0.1432,0.1455,0.1448,0.1449,0.1471,0.1451,0.1451,0.1469,0.1502,0.145,0.145,0.1502,0.1505,0.1507,0.1573,0,0,0,0,0,0,0.1364,0.1369,0.1379,0.1394,0.1401,0.1434,0.1429,0.1433,0.1463,0.1465,0.1466,0.1465,0.1451,0.147,0.1469,0.1501,0.1449,0.15,0.1504,0.1507,0.1568,0.1577,0.1584,0,0,0,0,0,0.1361,0.138,0.1378,0.1384,0.141,0.1436,0.144,0.1457,0.1464,0.1477,0.1483,0.1466,0.1489,0.1471,0.1469,0.1502,0.1499,0.1503,0.1506,0.1565,0.1575,0.1584,0,0,0,0,0,0,0.1355,0.1384,0.1382,0.1406,0.1423,0.144,0.1466,0.147,0.1486,0.1495,0.1481,0.148,0.1512,0.1498,0.1478,0.1529,0.1494,0.1498,0.1539,0.1549,0.1557,0.1585,0.1449,0,0,0,0,0,0.1359,0.1383,0.1401,0.1419,0.1436,0.1452,0.1469,0.1478,0.1493,0.1501,0.1504,0.1511,0.1524,0.1529,0.1535,0.1555,0.157,0.1578,0.1586,0.1593,0.1617,0.1682,0.1699,0.152,0.152,0.152,0,0,0.1363,0.1382,0.1395,0.1421,0.1441,0.1462,0.1463,0.1499,0.1517,0.1498,0.1532,0.154,0.1537,0.1566,0.1579,0.1559,0.1647,0.1598,0.1604,0.1624,0.1688,0.1705,0.1721,0.1523,0.1523,0.1522,0,0,0.1378,0.14,0.1424,0.1443,0.1479,0.1491,0.1505,0.1533,0.1552,0.1578,0.1579,0.1617,0.1616,0.1637,0.1642,0.17,0.169,0.1694,0.1754,0.1817,0.1833,0.1847,0.1867,0.1883,0.1695,0.1695,0.1695,0,0.1385,0.1404,0.1434,0.1457,0.1479,0.1505,0.1527,0.155,0.1578,0.1602,0.1598,0.1656,0.1658,0.1709,0.1735,0.1721,0.1738,0.1714,0.1829,0.1843,0.1856,0.1874,0.1891,0.1699,0.1698,0.1698,0.1698,0,0.1404,0.1427,0.145,0.1483,0.1509,0.154,0.1572,0.1604,0.1632,0.1654,0.1721,0.1742,0.1779,0.1788,0.178,0.1873,0.1848,0.1833,0.1805,0.1879,0.1892,0.1908,0.1704,0.1703,0.1702,0.1701,0,0,0.1402,0.1453,0.146,0.1479,0.1527,0.155,0.1596,0.1644,0.1686,0.1733,0.1791,0.1847,0.1879,0.1891,0.1899,0.1961,0.2064,0.1944,0.1946,0.1966,0.2182,0.2026,0.2028,0.2071,0.2075,0.2078,0.2146,0,0.1409,0.1447,0.1472,0.1513,0.154,0.1581,0.162,0.167,0.1718,0.1782,0.1845,0.1902,0.191,0.1942,0.2012,0.2043,0.2113,0.2046,0.2107,0.2109,0.1964,0.2044,0.1888,0.1925,0.2161,0.2163,0.2165,0,0.1417,0.1442,0.148,0.1534,0.1552,0.1582,0.1659,0.1697,0.179,0.1832,0.1917,0.1958,0.2059,0.2058,0.2184,0.2139,0.2186,0.2214,0.2216,0.2065,0.1984,0.1894,0.1944,0.2191,0.2189,0.2187,0.2185,0,0.1403,0.1451,0.1482,0.1501,0.1563,0.1597,0.1638,0.172,0.1761,0.1878,0.1919,0.2036,0.2088,0.2186,0.223,0.2229,0.2347,0.2342,0.2251,0.2239,0.2116,0.2086,0.247,0.247,0.247,0.247,0.247,0,0.1404,0.1435,0.1482,0.1503,0.1554,0.1598,0.1668,0.1725,0.1803,0.1845,0.1953,0.2003,0.213,0.2192,0.2256,0.2273,0.2368,0.2285,0.2262,0.2127,0.2099,0.2337,0.2321,0.2472,0.2472,0.2471,0.2471,0,0.1406,0.143,0.1476,0.1534,0.1555,0.16,0.1673,0.1713,0.1791,0.1848,0.1885,0.1995,0.2071,0.2154,0.2281,0.2267,0.2321,0.231,0.2113,0.2065,0.2173,0.2159,0.2244,0.224,0.2236,0.2232,0.223,0,0.1415,0.1436,0.1498,0.1521,0.1556,0.1616,0.1647,0.1715,0.173,0.1823,0.1829,0.1931,0.1971,0.2065,0.2082,0.2138,0.224,0.2005,0.1984,0.2188,0.2158,0.2151,0.2142,0.1852,0.1846,0.1842,0.1838,0,0.1433,0.146,0.1492,0.153,0.1565,0.1585,0.1616,0.1624,0.1673,0.1721,0.1759,0.1807,0.1861,0.1831,0.1853,0.1876,0.1977,0.1909,0.2218,0.1901,0.1815,0.1785,0.1792,0.1797,0.1801,0.1804,0.1806,0.1808,0.1449,0.147,0.1497,0.1525,0.1559,0.1529,0.1523,0.1537,0.1551,0.155,0.162,0.1622,0.1641,0.1593,0.1574,0.1573,0.1722,0.1686,0.1703,0.1725,0.1636,0.1544,0.1458,0.146,0.1462,0.1463,0.1465,0,0.1439,0.1454,0.148,0.1488,0.1487,0.1513,0.1476,0.1439,0.1433,0.1413,0.1429,0.129,0.1266,0.1311,0.124,0.1239,0.1269,0.1208,0.1254,0.1294,0.133,0.1224,0.0936,0.0935,0.0933,0.0932,0,0,0.1431,0.1424,0.141,0.1382,0.1411,0.1331,0.1297,0.1278,0.1234,0.1159,0.1112,0.1159,0.1223,0.1034,0.1033,0.0973,0.1124,0.0937,0.1361,0.1452,0.1486,0.1605,0.1485,0,0,0,0,0]},{"header":{"parameterUnit":"m.s-1","parameterCategory":2,"la1":30.2991,"la2":30.254,"lo1":-89.0895,"lo2":-89.0444,"dy":0.0017,"dx":0.0017,"nx":28,"ny":28,"refTime":"2025-02-04T09:00:00:Z","depth":"2","parameterNumber":3,"parameterNumberName":"V-component_of_CURRENTS"},"data":[0,0,0,0,0,0,0,0,0,0,0,0,0,0,0,0,0,0,0,0,0,0,0,0,0,0,0,0,0,0,0,0,0,0,0,0,0,0,0,0,0,0,0,0,0,0,0,0,0,0,0,0,0,0,0,0,0,0,0.0233,0.0233,0,0.0208,0.0207,0.0207,0.0159,0.0158,0.0157,0.0156,0.0117,0.0116,0.0116,0,0,0,0,0,0,0,0,0,0,0,0,0,0.0231,0.0232,0.0233,0.0233,0.0233,0.0208,0.0207,0.0207,0.0159,0.0158,0.0157,0.0156,0.0117,0.0116,0.0116,0,0,0,0,0,0,0,0,0,0,0,0,0,0.0221,0.0232,0.0233,0.0206,0.0204,0.0208,0.0207,0.0207,0.0159,0.0158,0.0157,0.0155,0.0117,0.0116,0.0116,0.014,0,0,0.0115,0.0115,0,0,0,0,0,0,0,0,0.0222,0.0221,0.0211,0.0208,0.0205,0.0186,0.0192,0.0184,0.016,0.0176,0.0156,0.0155,0.014,0.0137,0.0135,0.0138,0.0136,0.0115,0.0115,0.0114,0.0114,0,0,0,0,0,0,0,0.0222,0.0222,0.0223,0.0211,0.0207,0.0192,0.0189,0.019,0.0165,0.0174,0.0171,0.0169,0.0138,0.0135,0.0133,0.0136,0.0115,0.0114,0.0114,0.0114,0.0128,0.0128,0,0,0,0,0,0,0.0229,0.0223,0.0223,0.0222,0.0211,0.0194,0.019,0.0193,0.0165,0.0159,0.017,0.0167,0.0137,0.0134,0.0132,0.0138,0.0114,0.0114,0.0114,0.0127,0.0128,0.0128,0,0,0,0,0,0,0.0229,0.023,0.0224,0.0222,0.022,0.0195,0.0198,0.0193,0.0172,0.0162,0.0156,0.0153,0.0135,0.0132,0.0128,0.0136,0.0114,0.0114,0.0126,0.0127,0.0128,0.0162,0,0,0,0,0,0,0.0229,0.023,0.0227,0.0223,0.0221,0.0223,0.0199,0.0194,0.0175,0.017,0.0146,0.0142,0.0134,0.0129,0.0128,0.0135,0.0113,0.0126,0.0127,0.0128,0.016,0.0164,0.0168,0,0,0,0,0,0.023,0.0235,0.0227,0.0226,0.022,0.0223,0.0221,0.0198,0.0175,0.0172,0.0158,0.0141,0.0135,0.0129,0.0128,0.0135,0.0125,0.0127,0.0128,0.0159,0.0164,0.0167,0,0,0,0,0,0,0.0237,0.0231,0.0221,0.0226,0.0222,0.0215,0.0209,0.0193,0.0178,0.0167,0.0151,0.0147,0.0149,0.0138,0.0132,0.0143,0.0127,0.0128,0.0151,0.0155,0.0159,0.0193,0.0113,0,0,0,0,0,0.0238,0.0235,0.0233,0.0234,0.0233,0.0217,0.0211,0.0198,0.0189,0.0179,0.0164,0.0152,0.0158,0.0151,0.0152,0.0157,0.0167,0.016,0.0164,0.0167,0.0194,0.0228,0.0238,0.0133,0.0133,0.0133,0,0,0.024,0.0237,0.0233,0.0234,0.0227,0.0238,0.021,0.0202,0.021,0.018,0.0176,0.0165,0.0163,0.0172,0.0171,0.016,0.0194,0.0168,0.0171,0.0198,0.0231,0.0241,0.025,0.0134,0.0134,0.0133,0,0,0.0255,0.0241,0.0247,0.0249,0.0242,0.0238,0.0235,0.0223,0.0213,0.0212,0.02,0.0204,0.0186,0.0204,0.0208,0.0235,0.0216,0.0213,0.0255,0.0287,0.0296,0.0305,0.0302,0.031,0.021,0.021,0.021,0,0.0252,0.0271,0.025,0.0265,0.0272,0.0241,0.0261,0.0254,0.0241,0.0255,0.0212,0.0234,0.0215,0.0267,0.0263,0.0247,0.0243,0.0237,0.0293,0.0302,0.031,0.0305,0.0314,0.0212,0.0212,0.0211,0.0211,0,0.0283,0.0294,0.03,0.0309,0.0312,0.0322,0.0318,0.0317,0.0292,0.0296,0.0322,0.0305,0.0325,0.0308,0.0285,0.0338,0.0307,0.0297,0.0285,0.0323,0.0314,0.0323,0.0214,0.0214,0.0213,0.0213,0,0,0.0286,0.0316,0.0317,0.0338,0.0338,0.035,0.0368,0.0396,0.0427,0.0399,0.0454,0.0439,0.0428,0.0434,0.0411,0.0423,0.0448,0.0374,0.0374,0.0376,0.0488,0.0389,0.0387,0.0439,0.0441,0.0443,0.0448,0,0.0316,0.0364,0.0368,0.041,0.0436,0.0429,0.0457,0.0474,0.0478,0.0519,0.0517,0.0545,0.0477,0.048,0.0488,0.047,0.0476,0.0446,0.0448,0.0449,0.0361,0.0397,0.0372,0.0368,0.0456,0.0458,0.0459,0,0.0341,0.0378,0.0428,0.0481,0.0492,0.0506,0.056,0.0581,0.0631,0.0636,0.0668,0.0665,0.069,0.0619,0.0621,0.0597,0.0549,0.0522,0.0522,0.0433,0.0366,0.035,0.038,0.0473,0.0471,0.047,0.0469,0,0.0357,0.0415,0.0462,0.0476,0.0528,0.055,0.057,0.0615,0.0659,0.0713,0.0756,0.0781,0.0794,0.0763,0.0671,0.0653,0.066,0.0636,0.0509,0.05,0.0485,0.0471,0.0653,0.0653,0.0653,0.0653,0.0653,0,0.0385,0.042,0.0471,0.0495,0.0555,0.0574,0.0638,0.0663,0.0736,0.0807,0.0812,0.0872,0.0828,0.0816,0.0729,0.0631,0.0703,0.0535,0.0509,0.0489,0.0476,0.0577,0.0568,0.0653,0.0653,0.0653,0.0653,0,0.0384,0.0418,0.0475,0.0541,0.0557,0.0592,0.0663,0.0733,0.0775,0.0873,0.0896,0.0952,0.0918,0.085,0.0796,0.0697,0.0619,0.0562,0.0515,0.0482,0.0427,0.042,0.0455,0.0452,0.045,0.0447,0.0445,0,0.0392,0.0419,0.0494,0.053,0.0553,0.0609,0.0667,0.0732,0.0815,0.0915,0.0985,0.0989,0.0983,0.0856,0.0697,0.0544,0.0559,0.0418,0.0386,0.0443,0.0414,0.0411,0.0407,0.0375,0.0372,0.037,0.0369,0,0.0411,0.0426,0.0479,0.0552,0.0611,0.0694,0.0776,0.0829,0.0922,0.0996,0.1066,0.106,0.094,0.0778,0.0561,0.0457,0.0439,0.037,0.0489,0.0406,0.0361,0.0333,0.0334,0.0352,0.0354,0.0355,0.0356,0.0357,0.0422,0.0455,0.0522,0.0599,0.066,0.0751,0.0805,0.0898,0.0989,0.1064,0.1087,0.1049,0.0916,0.0599,0.0437,0.0266,0.0295,0.0238,0.0247,0.0258,0.0225,0.0176,0.0125,0.0125,0.0125,0.0126,0.0126,0,0.0453,0.0502,0.0572,0.0669,0.0736,0.0771,0.0878,0.0922,0.0987,0.1032,0.1052,0.0875,0.0709,0.055,0.0265,0.011,0.0132,0.0071,0.0146,0.0161,0.0176,0.0143,0.0019,0.0018,0.0018,0.0018,0,0,0.0476,0.0553,0.0607,0.0733,0.0777,0.0869,0.0905,0.0933,0.0955,0.0936,0.0905,0.0903,0.0712,0.0498,0.0311,0.0155,0.019,0.012,0.0215,0.0338,0.0354,0.0273,0.0238,0,0,0,0,0]}],[{"header":{"parameterUnit":"m.s-1","parameterCategory":2,"la1":30.2991,"la2":30.254,"lo1":-89.0895,"lo2":-89.0444,"dy":0.0017,"dx":0.0017,"nx":28,"ny":28,"refTime":"2025-02-04T09:00:00:Z","depth":"4","parameterNumber":2,"parameterNumberName":"U-component_of_CURRENTS"},"data":[0,0,0,0,0,0,0,0,0,0,0,0,0,0,0,0,0,0,0,0,0,0,0,0,0,0,0,0,0,0,0,0,0,0,0,0,0,0,0,0,0,0,0,0,0,0,0,0,0,0,0,0,0,0,0,0,0,0,0.0128,0.0129,0,0.014,0.014,0.014,0.0151,0.0151,0.0151,0.0151,0.0185,0.0186,0.0187,0,0,0,0,0,0,0,0,0,0,0,0,0,0.0135,0.0135,0.0128,0.0129,0.0129,0.014,0.014,0.014,0.0151,0.0151,0.0151,0.0151,0.0185,0.0186,0.0187,0,0,0,0,0,0,0,0,0,0,0,0,0,0.0138,0.0135,0.0128,0.0135,0.0136,0.014,0.014,0.014,0.0151,0.0151,0.0151,0.0151,0.0185,0.0186,0.0187,0.0189,0,0,0.019,0.0191,0,0,0,0,0,0,0,0,0.0138,0.0137,0.0134,0.0135,0.0136,0.0144,0.0155,0.0158,0.015,0.0145,0.0151,0.0151,0.0174,0.0176,0.0177,0.0191,0.0192,0.019,0.0191,0.0192,0.0192,0,0,0,0,0,0,0,0.0137,0.0137,0.0133,0.0134,0.0135,0.0145,0.0145,0.0156,0.0158,0.0145,0.0146,0.0148,0.0174,0.0175,0.0178,0.0193,0.019,0.0191,0.0192,0.0193,0.0264,0.0266,0,0,0,0,0,0,0.0135,0.0137,0.0132,0.0133,0.0138,0.0145,0.0145,0.0141,0.0157,0.016,0.0148,0.0148,0.0173,0.0176,0.0179,0.024,0.0192,0.0193,0.0193,0.0263,0.0265,0.0266,0,0,0,0,0,0,0.0135,0.0134,0.0132,0.0136,0.0136,0.0144,0.014,0.0141,0.016,0.0159,0.0162,0.0167,0.0174,0.0177,0.0201,0.0239,0.0193,0.0194,0.0262,0.0264,0.0265,0.0326,0,0,0,0,0,0,0.0135,0.0134,0.0133,0.0135,0.0136,0.0144,0.014,0.0141,0.016,0.0161,0.0177,0.0179,0.0174,0.0199,0.0202,0.024,0.0195,0.026,0.0263,0.0265,0.0322,0.0329,0.0335,0,0,0,0,0,0.0135,0.0132,0.0133,0.0133,0.0133,0.0144,0.0146,0.0152,0.0161,0.017,0.0182,0.0179,0.0216,0.0201,0.0204,0.0243,0.0259,0.0262,0.0265,0.0319,0.0328,0.0335,0,0,0,0,0,0,0.0138,0.0133,0.0134,0.013,0.0142,0.0146,0.0152,0.0164,0.0181,0.0185,0.019,0.0193,0.0233,0.0225,0.0208,0.027,0.024,0.0243,0.028,0.0288,0.0295,0.0313,0.0196,0,0,0,0,0,0.0137,0.013,0.0136,0.0135,0.0141,0.0152,0.016,0.0168,0.018,0.0188,0.0205,0.0221,0.0244,0.0255,0.0269,0.0297,0.0292,0.0325,0.0332,0.0337,0.0354,0.0381,0.0392,0.0275,0.0275,0.0275,0,0,0.0133,0.0134,0.0128,0.0135,0.0142,0.0161,0.0158,0.0173,0.0195,0.019,0.0229,0.0247,0.0257,0.0293,0.031,0.0292,0.0363,0.0341,0.0346,0.036,0.0385,0.0396,0.0406,0.0277,0.0277,0.0276,0,0,0.0135,0.013,0.013,0.0144,0.0161,0.017,0.0182,0.0203,0.0218,0.0255,0.0263,0.0301,0.0331,0.0348,0.0359,0.041,0.0402,0.0421,0.0468,0.0493,0.0503,0.0512,0.05,0.0507,0.042,0.0421,0.0421,0,0.0137,0.0137,0.0135,0.0152,0.0168,0.0182,0.0204,0.0219,0.025,0.0281,0.0275,0.0358,0.036,0.0417,0.0436,0.0428,0.0431,0.0437,0.0503,0.0512,0.052,0.0505,0.0512,0.0424,0.0423,0.0423,0.0423,0,0.0143,0.0152,0.0158,0.0181,0.0201,0.0219,0.0244,0.0271,0.0301,0.0337,0.0409,0.0419,0.0472,0.0481,0.0476,0.0544,0.0523,0.0511,0.0483,0.0535,0.0516,0.0522,0.0428,0.0427,0.0426,0.0425,0,0,0.0132,0.0155,0.016,0.0181,0.0219,0.0236,0.0276,0.0328,0.0375,0.0422,0.0489,0.0539,0.0571,0.0585,0.0588,0.0611,0.0656,0.0594,0.0594,0.0582,0.0696,0.0663,0.0666,0.0665,0.0667,0.0669,0.0652,0,0.0143,0.0168,0.0184,0.0228,0.0248,0.028,0.0323,0.0377,0.0426,0.0493,0.0537,0.0604,0.0601,0.0633,0.0662,0.0665,0.068,0.066,0.0647,0.0646,0.0613,0.0676,0.0675,0.0657,0.0658,0.0659,0.066,0,0.0147,0.0167,0.0198,0.0257,0.0272,0.0311,0.0388,0.0431,0.0524,0.0567,0.0649,0.0685,0.0746,0.0722,0.0766,0.0758,0.0741,0.073,0.0729,0.0688,0.0628,0.0599,0.0671,0.067,0.067,0.0669,0.0668,0,0.0136,0.0182,0.0205,0.0224,0.029,0.0328,0.0381,0.0471,0.0522,0.0627,0.0678,0.0759,0.0802,0.0812,0.08,0.0793,0.0823,0.0799,0.0748,0.0743,0.0747,0.0738,0.0827,0.0827,0.0827,0.0828,0.0828,0,0.0139,0.0163,0.0206,0.0225,0.0287,0.034,0.0428,0.0486,0.0581,0.0661,0.0727,0.0781,0.0835,0.0854,0.0826,0.0812,0.0843,0.0776,0.0755,0.0767,0.0761,0.0749,0.074,0.0827,0.0827,0.0827,0.0827,0,0.0119,0.0141,0.0175,0.0245,0.0281,0.0329,0.0451,0.0511,0.0602,0.0695,0.0731,0.0822,0.0867,0.0877,0.0889,0.0846,0.0821,0.0797,0.0798,0.0772,0.0711,0.0706,0.0753,0.0752,0.0752,0.0751,0.075,0,0.0104,0.0115,0.0181,0.0205,0.0243,0.033,0.0398,0.0516,0.0578,0.0707,0.0741,0.0828,0.0877,0.0858,0.0874,0.0832,0.0813,0.0776,0.0772,0.0739,0.0713,0.0708,0.0704,0.0749,0.0749,0.0749,0.0749,0,0.0077,0.0094,0.012,0.0173,0.0238,0.0317,0.0421,0.0468,0.0601,0.0679,0.075,0.0781,0.0836,0.0851,0.0833,0.0792,0.0795,0.0768,0.0769,0.0765,0.0734,0.0708,0.0705,0.0746,0.0746,0.0747,0.0747,0,0.0051,0.0056,0.0084,0.014,0.0202,0.0276,0.0352,0.0443,0.0528,0.067,0.069,0.0766,0.0842,0.0829,0.08,0.0783,0.0771,0.0717,0.072,0.0723,0.0724,0.0681,0.0678,0,0,0,0,0,0.0023,0.0032,0.0055,0.0112,0.0166,0.0225,0.0345,0.042,0.0554,0.0591,0.0645,0.0691,0.0717,0.0745,0.0723,0.0772,0.0755,0.0739,0.069,0.0732,0.0735,0.0739,0,0,0,0,0,0,0.0005,0.0017,0.0036,0.0073,0.011,0.0195,0.0277,0.0373,0.0409,0.0527,0.0549,0.0626,0.0659,0.0717,0.07,0.0706,0.0656,0.0783,0.0781,0.073,0.0733,0.0735,0.074,0,0,0,0,0]},{"header":{"parameterUnit":"m.s-1","parameterCategory":2,"la1":30.2991,"la2":30.254,"lo1":-89.0895,"lo2":-89.0444,"dy":0.0017,"dx":0.0017,"nx":28,"ny":28,"refTime":"2025-02-04T09:00:00:Z","depth":"4","parameterNumber":3,"parameterNumberName":"V-component_of_CURRENTS"},"data":[0,0,0,0,0,0,0,0,0,0,0,0,0,0,0,0,0,0,0,0,0,0,0,0,0,0,0,0,0,0,0,0,0,0,0,0,0,0,0,0,0,0,0,0,0,0,0,0,0,0,0,0,0,0,0,0,0,0,0.038,0.038,0,0.0371,0.0371,0.0371,0.0377,0.0378,0.0378,0.0379,0.0389,0.0389,0.0389,0,0,0,0,0,0,0,0,0,0,0,0,0,0.0341,0.0342,0.038,0.038,0.0381,0.0371,0.0371,0.0371,0.0377,0.0378,0.0378,0.0379,0.0389,0.0389,0.0389,0,0,0,0,0,0,0,0,0,0,0,0,0,0.0346,0.0342,0.038,0.0384,0.0384,0.0371,0.0371,0.0371,0.0377,0.0378,0.0378,0.0379,0.039,0.0389,0.0389,0.0374,0,0,0.0389,0.0388,0,0,0,0,0,0,0,0,0.0346,0.0347,0.0383,0.0384,0.0384,0.0378,0.0361,0.0373,0.0377,0.0378,0.0379,0.0379,0.0388,0.0388,0.0382,0.0375,0.0375,0.0389,0.0388,0.0388,0.0388,0,0,0,0,0,0,0,0.0345,0.0347,0.0375,0.0383,0.0384,0.0365,0.0366,0.0363,0.0378,0.0378,0.0379,0.038,0.0388,0.0382,0.0382,0.0375,0.0389,0.0388,0.0388,0.0388,0.0358,0.0357,0,0,0,0,0,0,0.0353,0.0347,0.0375,0.0375,0.0368,0.0365,0.0367,0.0378,0.0378,0.0379,0.038,0.0381,0.0382,0.0383,0.0383,0.0385,0.0388,0.0388,0.0388,0.0358,0.0358,0.0357,0,0,0,0,0,0,0.0352,0.0356,0.0376,0.0362,0.0363,0.0366,0.0377,0.0377,0.0381,0.0379,0.0381,0.0385,0.0383,0.0383,0.0384,0.0385,0.0388,0.0388,0.0359,0.0358,0.0357,0.0377,0,0,0,0,0,0,0.0351,0.0356,0.0368,0.0363,0.0364,0.0373,0.0377,0.0376,0.0381,0.0383,0.0384,0.0385,0.0383,0.0384,0.0384,0.0385,0.0388,0.036,0.0359,0.0358,0.0377,0.0377,0.0376,0,0,0,0,0,0.035,0.0364,0.0369,0.0373,0.0381,0.0373,0.0372,0.0374,0.0381,0.0381,0.0382,0.0386,0.0376,0.0384,0.0383,0.0384,0.0361,0.0359,0.0358,0.0377,0.0377,0.0376,0,0,0,0,0,0,0.0354,0.0366,0.0371,0.039,0.0384,0.0375,0.0377,0.0378,0.0377,0.0383,0.0382,0.0383,0.0383,0.0376,0.0385,0.0368,0.0366,0.0365,0.0381,0.0381,0.038,0.0384,0.0388,0,0,0,0,0,0.036,0.0376,0.0376,0.039,0.0389,0.0384,0.0383,0.0384,0.0381,0.0382,0.0386,0.0381,0.0372,0.0373,0.0366,0.036,0.0334,0.0356,0.0356,0.0356,0.0356,0.0308,0.0303,0.0352,0.0352,0.0352,0,0,0.0364,0.0375,0.0383,0.0392,0.0388,0.0386,0.0385,0.0385,0.0385,0.0383,0.0389,0.0385,0.037,0.0364,0.0363,0.0362,0.0327,0.0354,0.0354,0.0354,0.0306,0.0301,0.0297,0.0351,0.0351,0.0351,0,0,0.0371,0.0389,0.0398,0.0397,0.0398,0.0394,0.0396,0.0393,0.0393,0.0394,0.0389,0.0381,0.038,0.0363,0.0354,0.0343,0.0327,0.0345,0.0348,0.0302,0.0298,0.0294,0.0252,0.0244,0.0344,0.0344,0.0344,0,0.0374,0.0392,0.0396,0.0401,0.0404,0.0399,0.0401,0.0394,0.0394,0.0395,0.0401,0.0381,0.0374,0.035,0.035,0.0343,0.0319,0.0356,0.0302,0.0298,0.0293,0.0251,0.0242,0.0345,0.0345,0.0345,0.0345,0,0.038,0.0398,0.04,0.0409,0.0409,0.0412,0.0405,0.0404,0.0409,0.0409,0.0399,0.0379,0.0368,0.036,0.0357,0.0322,0.0315,0.0309,0.0307,0.029,0.0246,0.0237,0.0346,0.0346,0.0345,0.0345,0,0,0.0379,0.0402,0.0404,0.0415,0.0418,0.0419,0.0413,0.041,0.0412,0.0406,0.0398,0.0379,0.0377,0.0365,0.0349,0.0311,0.026,0.0305,0.0302,0.027,0.0161,0.018,0.0171,0.025,0.0248,0.0247,0.0143,0,0.0382,0.0401,0.0409,0.0424,0.0432,0.0429,0.0429,0.0427,0.0422,0.0414,0.0384,0.0381,0.0375,0.0372,0.033,0.0279,0.0236,0.0289,0.0177,0.0173,0.0198,0.0161,0.0242,0.0136,0.0133,0.0132,0.0131,0,0.0384,0.0399,0.042,0.0444,0.0447,0.046,0.0461,0.0461,0.0443,0.044,0.0419,0.0401,0.0352,0.0346,0.0239,0.0277,0.0223,0.0178,0.0172,0.0177,0.0174,0.0155,0.0113,0.0114,0.0116,0.0117,0.0118,0,0.0385,0.0409,0.0432,0.0438,0.0458,0.0472,0.0486,0.0481,0.0483,0.0461,0.0455,0.0398,0.0373,0.0288,0.021,0.0222,0.0086,0.0084,0.0043,0.0044,0.0051,0.0057,-0.0002,-0.0001,-0.0001,-0.0001,-0.0001,0,0.0388,0.0407,0.0443,0.0455,0.0492,0.0499,0.0529,0.0527,0.0518,0.0523,0.048,0.0451,0.036,0.0278,0.0197,0.0093,0.0071,0.0034,0.0015,0.0061,0.0069,0.0044,0.0051,-0.0005,-0.0004,-0.0003,-0.0003,0,0.0385,0.0409,0.0437,0.0473,0.0498,0.0525,0.0574,0.0584,0.0575,0.0567,0.0562,0.0487,0.0393,0.0288,0.015,0.0089,-0.0021,-0.0051,0.0005,-0.0008,-0.0032,-0.0024,-0.0121,-0.0121,-0.0121,-0.0121,-0.0121,0,0.0385,0.0401,0.0456,0.0482,0.051,0.056,0.0598,0.062,0.0623,0.0585,0.0571,0.049,0.0435,0.0243,0.0138,-0.0024,-0.0035,-0.0098,-0.0066,-0.0037,-0.0047,-0.0038,-0.0029,-0.0122,-0.0122,-0.0122,-0.0122,0,0.0372,0.0397,0.0417,0.0479,0.0533,0.059,0.0641,0.0646,0.0656,0.0647,0.0581,0.0489,0.0383,0.0249,0.0136,0.0018,-0.0064,-0.0101,-0.0101,-0.0071,-0.004,-0.0047,-0.0038,-0.0123,-0.0123,-0.0123,-0.0123,0,0.036,0.0377,0.0409,0.0468,0.0526,0.0587,0.0629,0.0641,0.0654,0.0616,0.0595,0.0483,0.0428,0.0269,0.0151,0.0053,0.0029,-0.0008,-0.0013,-0.0014,0.0059,0.0117,0.0056,0,0,0,0,0,0.0342,0.0365,0.0397,0.0463,0.0515,0.0572,0.0628,0.0659,0.0676,0.064,0.0619,0.0524,0.0364,0.0282,0.0188,0.014,0.0005,0.0024,-0.0041,-0.0127,-0.0127,-0.0056,0,0,0,0,0,0,0.033,0.0357,0.0382,0.0436,0.0489,0.0568,0.0617,0.0644,0.0619,0.0614,0.053,0.05,0.0343,0.0426,0.0187,0.0155,0.0099,-0.0047,-0.0049,-0.0128,-0.0127,-0.0126,-0.0053,0,0,0,0,0]}]]